Overview Statistics Trail Chart Weather Telemetry Raw packets
 

This is the latest recevied weather packets stored in our database for station/object VE6EN. If no packets are shown the sender has not sent any weather packets the latest 10 day(s).

<< 49 50 51 52 53 54 >>
Time Temp. Humidity Pressure Rain* Wind** Luminosity Snow
1787813403 20° C 47% 1014 hPa 0 mm - - -
1787812803 20.56° C 47% 1014.1 hPa 0 mm - - -
1787811607 20.56° C 48% 1014.3 hPa 0 mm - - -
1787811006 20.56° C 49% 1014.4 hPa 0 mm - - -
1787810404 20.56° C 51% 1014.6 hPa 0 mm - - -
1787809806 21.11° C 50% 1014.7 hPa 0 mm - - -
1787809207 21.11° C 49% 1014.7 hPa 0 mm - - -
1787808604 21.11° C 49% 1014.6 hPa 0 mm - - -
1787808004 20.56° C 50% 1014.7 hPa 0 mm - - -
1787807413 20.56° C 50% 1014.9 hPa 0 mm - - -
1787806804 21.11° C 50% 1015 hPa 0 mm - - -
1787806208 21.11° C 50% 1015.4 hPa 0 mm - - -
1787805604 21.11° C 49% 1015.3 hPa 0 mm - - -
1787805004 21.11° C 49% 1015.3 hPa 0 mm - - -
1787804404 21.11° C 48% 1015.1 hPa 0 mm - - -
1787803804 21.67° C 47% 1015.2 hPa 0 mm - - -
1787803203 21.67° C 47% 1015.2 hPa 0 mm - - -
1787802604 22.22° C 46% 1015.1 hPa 0 mm - - -
1787802008 22.22° C 46% 1015.2 hPa 0 mm - - -
1787801411 22.22° C 45% 1015.3 hPa 0 mm - - -
1787800807 22.22° C 45% 1015.2 hPa 0 mm - - -
1787800207 22.22° C 45% 1015.1 hPa 0 mm - - -
1787799604 22.22° C 44% 1015.2 hPa 0 mm - - -
1787799004 22.78° C 44% 1015.2 hPa 0 mm - - -
1787798414 22.78° C 43% 1015.2 hPa 0 mm - - -

* Rain latest hour (hover to see other rain measurements)
** Current wind speed in m/s (hover to see current wind gust speed)